Location: Mangaone Stream
(40.3833°S, 175.5833°E)
Time: 00:32:33
(UTC+00:00)

Daily predictions for brighter satellites

Satellite Brightness Start Highest point End
(mag) Time Altitude Azimuth Time Altitude Azimuth Time Altitude Azimuth
USA 238 DEB 4.3 05:33:40 10° N 05:41:31 52° ENE 05:48:52 10° SE
USA 238 4.3 05:33:53 10° N 05:41:43 51° ENE 05:49:03 10° SE
Cosmos 1484 Rocket 4.3 05:40:14 10° ESE 05:42:01 14° E 05:43:48 10° NE
Cosmos 1371 Rocket 4.5 05:36:56 10° SSW 05:42:08 68° WNW 05:47:19 10° N
SL-08 R/B 4.5 05:37:31 10° S 05:43:49 80° E 05:49:58 10° N
H-2A R/B 3.4 05:49:25 10° S 05:53:16 79° WSW 05:57:06 10° NNW
Cosmos 1331 Rocket 4.1 05:48:48 10° SSW 05:54:06 62° ESE 05:59:21 10° NNE
Cosmos 1452 Rocket 3.8 05:50:09 10° S 05:55:14 43° ESE 06:00:14 10° NE
Meteor 1-21 Rocket 4.4 05:50:46 10° N 05:56:33 63° E 06:02:20 10° SSE
Cosmos 1934 Rocket 4.0 05:50:16 10° S 05:56:43 80° E 06:03:01 10° N
Cosmos 1356 Rocket 3.7 05:52:55 10° SSW 05:57:04 72° W 06:01:06 10° N
BREEZE-M R/B 3.9 05:49:32 10° WNW 05:58:23 86° SSW 06:02:32 12° SE
Cosmos 2242 Rocket 4.0 05:55:14 10° NNE 05:59:25 41° E 06:03:42 10° SSE
COSMOS 2406 4.1 06:01:04 10° S 06:05:56 27° SE 06:10:46 10° ENE
TIMED 4.5 06:06:56 10° NNW 06:11:12 89° WSW 06:15:32 10° SSE
SL-23 DEB 4.2 06:08:49 10° SW 06:12:11 34° SSE 06:13:57 19° E
Cosmos 1346 Rocket 3.3 06:13:29 10° NNE 06:16:48 32° E 06:19:48 12° SSE
Centaur D-1A AC-31 4.1 06:17:53 10° NNW 06:19:56 13° N 06:23:02 10° NE
USA 267 3.8 06:15:44 10° SE 06:22:09 57° SW 06:28:32 10° WNW
SMAP 3.1 06:22:18 10° SSE 06:26:59 59° E 06:31:36 10° N
Cosmos 1378 Rocket 3.4 06:28:13 10° N 06:32:30 75° E 06:36:54 10° S
Cosmos 1461 2.6 06:29:30 10° SW 06:33:07 77° WNW 06:36:45 10° NNE
BlueWalker 3 2.6 06:30:22 10° SW 06:33:43 32° SSE 06:34:22 30° SE
Cosmos 1674 Rocket 3.7 06:31:05 10° N 06:35:22 52° E 06:39:42 10° SSE
Cosmos 2221 Rocket 4.3 06:34:18 10° NNE 06:38:21 32° E 06:39:23 29° ESE
Cosmos 2369 Rocket 2.8 06:34:26 10° NNE 06:39:31 35° ENE 06:41:43 26° ESE
BREEZE-M DEB (TANK) 2.0 06:37:19 10° NW 06:39:51 70° NNE 06:41:17 34° ESE
Meteor 2-1 Rocket 4.4 06:39:44 10° S 06:45:37 53° ESE 06:51:22 10° NNE
CBERS-1 4.0 06:44:27 10° SSE 06:49:41 87° ENE 06:54:49 10° NNW
Cosmos 1943 Rocket 4.4 06:49:44 10° W 06:53:46 20° SW 06:57:50 10° S
Meteor 2-21 Rocket 4.4 06:49:21 10° N 06:55:30 71° E 07:01:41 10° SSE
USA 234 3.2 06:51:20 18° NE 06:56:32 78° SE 07:03:10 10° SW
Milstar 3 Cent rocket 4.4 06:54:52 10° NW 06:57:28 13° NNW 06:59:48 10° N
USA 59 Rocket 2.0 06:49:03 10° NW 06:57:33 79° SW 07:07:49 10° SSE
ARIANE 5 R/B 2.7 06:55:57 30° SE 06:58:10 49° E 07:03:09 10° N
AQUARIUS 4.0 07:01:42 25° SSE 07:04:17 77° ENE 07:08:42 10° N
Cosmos 2082 Rocket 3.4 07:08:36 10° SW 07:13:57 43° WNW 07:19:17 10° N
Cosmos 1484 Rocket 4.4 07:11:51 10° S 07:14:46 29° WSW 07:17:42 10° NW
Cosmos 2297 3.6 07:09:48 10° N 07:15:21 61° ENE 07:16:09 55° ESE
Cosmos 1656 Rocket 4.5 07:11:13 10° NW 07:16:45 51° WSW 07:21:40 13° SSE
Cosmos 2151 Rocket 3.8 07:12:38 10° SSW 07:17:07 68° W 07:21:30 10° N
Okean 2 Rocket 3.0 07:13:34 10° S 07:18:04 89° E 07:22:32 10° N
Meteor 2-16 Rocket 4.4 07:12:54 10° N 07:19:01 87° W 07:25:14 10° S
Cosmos 2173 Rocket 3.8 07:15:51 10° S 07:22:02 73° E 07:28:07 10° NNE
Cosmos 1992 Rocket 3.9 07:19:00 10° SSW 07:24:18 89° WNW 07:26:12 41° NNE
Cosmos 1025 Rocket 4.2 07:26:05 10° NNW 07:30:14 42° WSW 07:33:51 13° S
NOSS 3-1 (C) 4.3 07:32:23 10° NNW 07:41:53 63° ENE 07:43:35 55° ESE
COSMOS 2406 4.1 07:44:55 10° SW 07:50:24 46° WNW 07:54:53 15° N
Cosmos 2263 4.5 07:51:20 10° NNW 07:56:28 66° WNW 07:56:28 66° WNW
Cosmos 2123 Rocket 4.3 07:55:48 10° NNW 08:02:01 64° W 08:05:33 27° S
Cosmos 1802 Rocket 4.2 07:55:51 10° S 08:01:31 68° SSW 08:01:31 68° SSW
Cosmos 2369 Rocket 3.6 08:18:19 10° WNW 08:23:28 34° WSW 08:23:33 34° SW
USA 59 Rocket 3.4 08:40:32 10° W 08:48:34 30° SSW 08:53:20 22° S
USA 59 Rocket 4.0 10:35:01 10° SW 10:38:50 17° SSW 10:38:50 17° SSW
